Location: Arrodets-la-Barthe
(43.0306°N, 0.2829°E)
Time: 12:06:31
(UTC+00:00)

Cosmos 2278 - Pass Details

Date: 30 May 2022
Orbit: 838 x 854 km, 71.1° (Epoch: 01 July)

Event Time Altitude Azimuth Distance (km) Brightness Sun altitude
Rises 22:19:49 0° 258° (WSW) 3,394 7.0 -21.4°
Reaches altitude 10° 22:23:25 10° 282° (WNW) 2,467 6.6 -21.6°
Maximum altitude 22:26:34 15° 316° (NW) 2,138 6.7 -21.9°
Drops below altitude 10° 22:29:45 10° 350° (N) 2,479 7.2 -22.1°
Sets 22:33:24 0° 13° (NNE) 3,423 7.7 -22.3°
